[[{"header":{"parameterUnit":"m.s-1","parameterCategory":1,"la1":30.2991,"la2":30.254,"lo1":-89.0895,"lo2":-89.0444,"dy":0.0017,"dx":0.0017,"nx":28,"ny":28,"refTime":"2025-04-25T03:00:00:Z","depth":0,"parameterNumber":2,"parameterNumberName":"U-component_of_WINDS"},"data":[0,0,0,0,0,0,0,0,0,0,0,0,0,0,0,0,0,0,0,0,0,0,0,0,0,0,0,0,0,0,0,0,0,0,0,0,0,0,0,0,0,0,0,0,0,0,0,0,0,0,0,0,0,0,0,0,0,0,-1.2313,-1.2313,0,-1.2344,-1.2344,-1.2344,-1.2343,-1.2343,-1.2342,-1.2342,-1.2376,-1.2378,-1.2379,0,0,0,0,0,0,0,0,0,0,0,0,0,-1.2257,-1.2258,-1.2313,-1.2313,-1.2314,-1.2344,-1.2344,-1.2344,-1.2343,-1.2343,-1.2342,-1.2342,-1.2376,-1.2377,-1.2379,0,0,0,0,0,0,0,0,0,0,0,0,0,-1.2284,-1.2258,-1.2313,-1.2317,-1.2317,-1.2344,-1.2344,-1.2345,-1.2343,-1.2343,-1.2342,-1.2341,-1.2375,-1.2377,-1.2379,-1.2405,0,0,-1.2385,-1.2386,0,0,0,0,0,0,0,0,-1.2282,-1.2286,-1.2316,-1.2316,-1.2317,-1.2339,-1.2337,-1.2365,-1.2343,-1.2333,-1.2342,-1.2341,-1.2365,-1.2367,-1.2375,-1.2406,-1.2408,-1.2385,-1.2387,-1.2388,-1.2388,0,0,0,0,0,0,0,-1.228,-1.2284,-1.2325,-1.2316,-1.2317,-1.2318,-1.2321,-1.2342,-1.2352,-1.2334,-1.2334,-1.2338,-1.2365,-1.2373,-1.2376,-1.2408,-1.2385,-1.2387,-1.2388,-1.2389,-1.2464,-1.2465,0,0,0,0,0,0,-1.2277,-1.2283,-1.2324,-1.2326,-1.2297,-1.2319,-1.2323,-1.2333,-1.2352,-1.2354,-1.2338,-1.2338,-1.237,-1.2373,-1.2377,-1.2409,-1.2388,-1.2389,-1.2391,-1.2463,-1.2464,-1.2465,0,0,0,0,0,0,-1.2276,-1.2281,-1.2323,-1.2304,-1.231,-1.2321,-1.2332,-1.2334,-1.2341,-1.2355,-1.2357,-1.2344,-1.2369,-1.2374,-1.2398,-1.241,-1.239,-1.2392,-1.2462,-1.2464,-1.2465,-1.2472,0,0,0,0,0,0,-1.2274,-1.228,-1.2289,-1.2305,-1.2311,-1.2342,-1.2333,-1.2335,-1.2344,-1.2344,-1.2361,-1.2364,-1.2369,-1.2395,-1.24,-1.2412,-1.2394,-1.2461,-1.2463,-1.2464,-1.2471,-1.2473,-1.2475,0,0,0,0,0,-1.2272,-1.229,-1.229,-1.2295,-1.2322,-1.2343,-1.2347,-1.2352,-1.2345,-1.2355,-1.2364,-1.2363,-1.2408,-1.2397,-1.2403,-1.2416,-1.2461,-1.2462,-1.2464,-1.247,-1.2473,-1.2475,0,0,0,0,0,0,-1.2277,-1.2292,-1.2292,-1.2315,-1.2328,-1.2343,-1.2355,-1.2355,-1.237,-1.2369,-1.2376,-1.238,-1.2404,-1.2412,-1.2401,-1.2442,-1.2434,-1.2437,-1.2436,-1.2439,-1.2441,-1.2438,-1.2395,0,0,0,0,0,-1.228,-1.2295,-1.2308,-1.2328,-1.2334,-1.2343,-1.2353,-1.2356,-1.2369,-1.2375,-1.2386,-1.24,-1.2417,-1.2429,-1.2445,-1.2472,-1.2477,-1.2484,-1.2486,-1.2488,-1.2491,-1.2507,-1.251,-1.2471,-1.2471,-1.2471,0,0,-1.2288,-1.2298,-1.2307,-1.2329,-1.2339,-1.2355,-1.2348,-1.2365,-1.2378,-1.2378,-1.2401,-1.241,-1.2426,-1.2452,-1.2464,-1.246,-1.2503,-1.249,-1.2492,-1.2493,-1.2509,-1.2513,-1.2516,-1.2472,-1.2472,-1.2472,0,0,-1.231,-1.2319,-1.2336,-1.2347,-1.2362,-1.2368,-1.2373,-1.2388,-1.2394,-1.2417,-1.2418,-1.2434,-1.2463,-1.2475,-1.2485,-1.2513,-1.2513,-1.2519,-1.2531,-1.2546,-1.2549,-1.2552,-1.2563,-1.2567,-1.2521,-1.2521,-1.2521,0,-1.2318,-1.2341,-1.2346,-1.2363,-1.2373,-1.2374,-1.2392,-1.2403,-1.2423,-1.243,-1.2426,-1.2463,-1.2474,-1.2503,-1.251,-1.2518,-1.2524,-1.2516,-1.2548,-1.2551,-1.2554,-1.2564,-1.2568,-1.2522,-1.2522,-1.2522,-1.2522,0,-1.235,-1.2367,-1.2379,-1.2398,-1.241,-1.2428,-1.2436,-1.2448,-1.245,-1.2458,-1.2482,-1.2496,-1.2516,-1.2523,-1.2526,-1.2553,-1.255,-1.2547,-1.2538,-1.2558,-1.2568,-1.2572,-1.2523,-1.2522,-1.2522,-1.2522,0,0,-1.2375,-1.2397,-1.2402,-1.2411,-1.2428,-1.2441,-1.246,-1.2479,-1.2489,-1.2504,-1.252,-1.2546,-1.2543,-1.2555,-1.2559,-1.2573,-1.2595,-1.2568,-1.2568,-1.2573,-1.2627,-1.263,-1.2634,-1.2596,-1.2596,-1.2597,-1.2626,0,-1.2399,-1.2431,-1.2437,-1.2465,-1.2481,-1.2483,-1.25,-1.2513,-1.2521,-1.2536,-1.2546,-1.2564,-1.2558,-1.2566,-1.2579,-1.259,-1.2606,-1.2588,-1.2612,-1.2613,-1.2608,-1.2639,-1.2641,-1.2668,-1.263,-1.2631,-1.2631,0,-1.2432,-1.2446,-1.2476,-1.2493,-1.2499,-1.2514,-1.2532,-1.2547,-1.2563,-1.2568,-1.2581,-1.2584,-1.2605,-1.2596,-1.2626,-1.2613,-1.2624,-1.2631,-1.2632,-1.2634,-1.2623,-1.2643,-1.2677,-1.2681,-1.2637,-1.2637,-1.2636,0,-1.2447,-1.2475,-1.2496,-1.2504,-1.2523,-1.2534,-1.2543,-1.2558,-1.2569,-1.2586,-1.2593,-1.2612,-1.2623,-1.2638,-1.2647,-1.2639,-1.2677,-1.2668,-1.2683,-1.2682,-1.269,-1.2689,-1.2726,-1.2697,-1.2697,-1.2697,-1.2697,0,-1.2474,-1.2492,-1.2504,-1.2517,-1.2538,-1.2545,-1.2566,-1.2575,-1.2589,-1.2605,-1.2608,-1.2624,-1.2634,-1.2652,-1.2659,-1.2683,-1.2688,-1.2693,-1.2695,-1.2693,-1.2692,-1.27,-1.2698,-1.2698,-1.2698,-1.2697,-1.2697,0,-1.2494,-1.2503,-1.2527,-1.2543,-1.2548,-1.2563,-1.2578,-1.2592,-1.26,-1.262,-1.2626,-1.2639,-1.266,-1.267,-1.2696,-1.2701,-1.2729,-1.2729,-1.2723,-1.2724,-1.2738,-1.2736,-1.2781,-1.2787,-1.2753,-1.2754,-1.2754,0,-1.2511,-1.2525,-1.2543,-1.2553,-1.2562,-1.2579,-1.2591,-1.2599,-1.2611,-1.2631,-1.2643,-1.2663,-1.268,-1.2714,-1.2727,-1.2747,-1.2748,-1.2762,-1.2751,-1.2749,-1.2749,-1.2748,-1.275,-1.2764,-1.2765,-1.2765,-1.2765,0,-1.2539,-1.2543,-1.2558,-1.2576,-1.259,-1.2604,-1.2619,-1.2628,-1.2638,-1.2652,-1.2673,-1.2686,-1.2712,-1.2734,-1.2755,-1.2766,-1.2768,-1.2769,-1.2773,-1.2771,-1.2767,-1.277,-1.2729,-1.2767,-1.2767,-1.2767,-1.2767,-1.2767,-1.2558,-1.2571,-1.2586,-1.2604,-1.2616,-1.2629,-1.2643,-1.2653,-1.267,-1.2692,-1.2696,-1.2719,-1.2736,-1.2765,-1.2776,-1.2795,-1.2792,-1.2798,-1.28,-1.2801,-1.2802,-1.2764,-1.2799,-1.2799,-1.2799,-1.2799,-1.2799,0,-1.2587,-1.2597,-1.2613,-1.2633,-1.2648,-1.2648,-1.2664,-1.2677,-1.2696,-1.2711,-1.2728,-1.2752,-1.2773,-1.2788,-1.2809,-1.2822,-1.2823,-1.2827,-1.2826,-1.2829,-1.2803,-1.2797,-1.2825,-1.2825,-1.2825,-1.2825,-1.2825,-1.2825,-1.2603,-1.2626,-1.2631,-1.266,-1.267,-1.2691,-1.2701,-1.2714,-1.2726,-1.2753,-1.277,-1.2779,-1.2795,-1.2818,-1.2838,-1.2841,-1.285,-1.2853,-1.2858,-1.2833,-1.2831,-1.2828,-1.2822,-1.2855,-1.2855,-1.2881,-1.2882,-1.2882]},{"header":{"parameterUnit":"m.s-1","parameterCategory":1,"la1":30.2991,"la2":30.254,"lo1":-89.0895,"lo2":-89.0444,"dy":0.0017,"dx":0.0017,"nx":28,"ny":28,"refTime":"2025-04-25T03:00:00:Z","depth":0,"parameterNumber":3,"parameterNumberName":"V-component_of_WINDS"},"data":[0,0,0,0,0,0,0,0,0,0,0,0,0,0,0,0,0,0,0,0,0,0,0,0,0,0,0,0,0,0,0,0,0,0,0,0,0,0,0,0,0,0,0,0,0,0,0,0,0,0,0,0,0,0,0,0,0,0,2.6169,2.6169,0,2.614,2.614,2.614,2.6106,2.6106,2.6105,2.6105,2.6074,2.6073,2.6073,0,0,0,0,0,0,0,0,0,0,0,0,0,2.6193,2.6193,2.6169,2.6168,2.6168,2.614,2.614,2.614,2.6106,2.6106,2.6105,2.6105,2.6074,2.6073,2.6073,0,0,0,0,0,0,0,0,0,0,0,0,0,2.6175,2.6193,2.6169,2.6148,2.6146,2.614,2.614,2.6139,2.6107,2.6106,2.6105,2.6104,2.6074,2.6073,2.6073,2.6084,0,0,2.6071,2.6071,0,0,0,0,0,0,0,0,2.6176,2.6174,2.6152,2.615,2.6147,2.6126,2.6137,2.6121,2.6107,2.6122,2.6105,2.6104,2.6092,2.6089,2.6086,2.6083,2.6082,2.6071,2.6071,2.607,2.607,0,0,0,0,0,0,0,2.6178,2.6175,2.6157,2.6151,2.6149,2.614,2.6137,2.6134,2.6111,2.612,2.6118,2.6115,2.609,2.6086,2.6085,2.6081,2.6071,2.6071,2.607,2.607,2.6086,2.6087,0,0,0,0,0,0,2.6182,2.6177,2.6158,2.6157,2.616,2.614,2.6136,2.6134,2.6111,2.6107,2.6116,2.6113,2.6088,2.6085,2.6084,2.6096,2.607,2.607,2.607,2.6086,2.6087,2.6087,0,0,0,0,0,0,2.6183,2.6181,2.616,2.6166,2.6163,2.6141,2.6138,2.6134,2.613,2.6108,2.6103,2.6116,2.6087,2.6084,2.6085,2.6094,2.607,2.6069,2.6085,2.6086,2.6087,2.612,0,0,0,0,0,0,2.6184,2.6181,2.6186,2.6166,2.6162,2.6162,2.6138,2.6133,2.6129,2.6126,2.6107,2.6103,2.6086,2.6086,2.6084,2.6093,2.6069,2.6084,2.6085,2.6087,2.6118,2.6123,2.6126,0,0,0,0,0,2.6185,2.6196,2.6186,2.6184,2.6168,2.6162,2.616,2.6141,2.613,2.6134,2.612,2.6103,2.6094,2.6086,2.6084,2.6093,2.6083,2.6085,2.6087,2.6117,2.6122,2.6126,0,0,0,0,0,0,2.6216,2.6193,2.6182,2.6187,2.6177,2.6157,2.6161,2.6147,2.614,2.6137,2.6113,2.6109,2.6113,2.6103,2.6095,2.6103,2.6086,2.6087,2.6109,2.6114,2.6118,2.612,2.6068,0,0,0,0,0,2.6224,2.6222,2.6202,2.6208,2.6204,2.6184,2.6181,2.6167,2.6155,2.6151,2.6136,2.6125,2.6119,2.6116,2.611,2.6117,2.6112,2.6122,2.6126,2.6129,2.6131,2.6134,2.6138,2.6093,2.6093,2.6093,0,0,2.624,2.6227,2.6227,2.6214,2.6205,2.6203,2.618,2.6179,2.6177,2.615,2.615,2.6139,2.6125,2.6129,2.613,2.6121,2.6142,2.6131,2.6134,2.6134,2.6136,2.614,2.6144,2.6094,2.6094,2.6094,0,0,2.6267,2.6257,2.6262,2.6253,2.624,2.6226,2.6227,2.6209,2.6201,2.6201,2.6181,2.6178,2.6168,2.6159,2.6153,2.6178,2.6163,2.6177,2.6197,2.62,2.6204,2.6207,2.6216,2.6219,2.6178,2.6178,2.6178,0,2.6288,2.6285,2.6266,2.6266,2.6262,2.6238,2.6242,2.6234,2.6219,2.6216,2.6206,2.6194,2.6183,2.6184,2.6191,2.6187,2.6187,2.6179,2.6205,2.6208,2.621,2.6219,2.6222,2.618,2.618,2.618,2.618,0,2.6312,2.631,2.6315,2.6302,2.6298,2.63,2.6281,2.6279,2.6266,2.6253,2.6253,2.6239,2.6229,2.6229,2.6216,2.6228,2.6223,2.621,2.6192,2.6217,2.6224,2.6227,2.6183,2.6182,2.6182,2.6181,0,0,2.6358,2.6335,2.6337,2.6331,2.6314,2.6312,2.6314,2.6305,2.6304,2.6294,2.6294,2.6287,2.6275,2.6268,2.6254,2.6257,2.6278,2.6243,2.6242,2.625,2.6291,2.6301,2.6305,2.6267,2.6268,2.6268,2.6292,0,2.6383,2.6385,2.6367,2.6373,2.6371,2.6349,2.635,2.634,2.6328,2.6325,2.6311,2.6307,2.6291,2.6287,2.6289,2.6275,2.6285,2.6273,2.6267,2.6267,2.6271,2.6309,2.632,2.6343,2.6295,2.6295,2.6296,0,2.6412,2.6405,2.6411,2.6394,2.6393,2.6394,2.6385,2.6382,2.637,2.6361,2.6354,2.6338,2.6338,2.6322,2.632,2.6312,2.6309,2.6302,2.6302,2.6301,2.6283,2.6309,2.635,2.6354,2.63,2.63,2.6299,0,2.6446,2.6437,2.644,2.6435,2.6416,2.6418,2.641,2.6397,2.6393,2.6384,2.6382,2.6373,2.6369,2.6362,2.6344,2.6334,2.6346,2.6327,2.6338,2.6339,2.6341,2.6341,2.6383,2.6339,2.6339,2.6339,2.6339,0,2.6475,2.648,2.6455,2.6457,2.6461,2.6441,2.6446,2.6435,2.6424,2.6423,2.6403,2.6402,2.6378,2.6375,2.6361,2.6362,2.636,2.6353,2.6349,2.6355,2.6356,2.6352,2.635,2.634,2.634,2.634,2.6339,0,2.6513,2.6497,2.6498,2.648,2.6476,2.648,2.6464,2.6465,2.6452,2.6451,2.645,2.643,2.6424,2.6406,2.6396,2.6387,2.6392,2.6385,2.6397,2.6394,2.6406,2.6405,2.6447,2.6451,2.6405,2.6405,2.6406,0,2.6533,2.6536,2.6519,2.6517,2.651,2.6507,2.6504,2.6484,2.6481,2.6467,2.6469,2.6463,2.6456,2.6449,2.6433,2.6426,2.6418,2.6433,2.6417,2.6422,2.6418,2.6419,2.6419,2.6437,2.6437,2.6438,2.6438,0,2.6571,2.6562,2.6558,2.6551,2.6547,2.654,2.6532,2.6532,2.651,2.6507,2.6502,2.6497,2.6487,2.6481,2.6471,2.6462,2.6446,2.6443,2.6445,2.6451,2.6458,2.6455,2.6407,2.6443,2.6442,2.6442,2.6442,2.6441,2.66,2.6602,2.659,2.6586,2.6578,2.6571,2.6571,2.6559,2.6554,2.6546,2.6534,2.6531,2.6518,2.6503,2.6495,2.6492,2.6483,2.6486,2.6487,2.6488,2.6491,2.6459,2.649,2.649,2.649,2.6489,2.6489,0,2.6637,2.6628,2.6624,2.6614,2.6611,2.6597,2.6588,2.6586,2.6583,2.6573,2.6568,2.6562,2.6556,2.654,2.6532,2.6532,2.6525,2.6531,2.6531,2.6529,2.6499,2.6498,2.6537,2.6537,2.6537,2.6537,2.6537,2.6537,2.6655,2.6658,2.6648,2.6647,2.6638,2.6635,2.6631,2.6624,2.6616,2.6611,2.6606,2.6596,2.6584,2.6575,2.6568,2.6564,2.6562,2.657,2.6563,2.6536,2.6531,2.6527,2.6526,2.657,2.657,2.6594,2.6594,2.6594]}]]